Find Starlink 38028

NORAD ID: 100485 Int'l Des: 2026-196 Owner: SPXS Country: US Constellation: starlink operational

Current View

Loading 3D Globe...

About Starlink 38028

Starlink 38028 (NORAD 100485) is a starlink constellation satellite launched Aug 25, 2026 by SPXS of US. with a mass of 575.00 kg.

Upcoming Passes

Passes for default location (London). Set your location on the main map for personalized predictions.

Altitude History

Loading altitude history...

Two-Line Element Set

1 A0485U 26196N 26255.31642930 .00101129 00000-0 53435-3 0 9996
2 A0485 53.1572 282.5640 0001061 109.1195 250.9943 15.79849807 4063
Epoch: Sep 12, 2026 • Age: 9 hours

Current Status

Altitude 347.4 km
Apogee / Perigee N/A
Velocity 7.70 km/s
Sub-Earth Point -47.09°S, 10.61°W
Launch Date Aug 25, 2026
Age 18 days
Type internet

Technical Details

Classification Payload
Mass 575.00 kg
Dry Mass 530.00 kg
Total Mass 575.00 kg
Length 0.30 m
Diameter 4.10 m
Span 29.00 m
Shape Box + pan
Manufacturer SPXS
Bus Type Starlink V2MO
Phase Status In Orbit
Owner/State SPXS/US

Most Searched